Lid_Strength_Index
3 3 3 2 1 0 0 2 3 4 4 4 4 3 2 2 5 6 7 6 6 9 8 8 7 8 8 8 9 8 8 7 7 10 11 10 12 10 12 10 12 12 14 14 13 15 15 8 9 12 9 7 7 7
3 3 3 2 1 1 0 1 2 3 3 4 3 3 2 1 3 4 6 6 5 7 7 7 6 5 5 5 7 7 9 8 7 8 9 9 11 10 11 13 9 12 10 12 12 12 8 7 8 6 6 7 6 6
3 3 3 2 2 1 0 1 2 3 4 3 3 3 2 1 2 3 6 7 6 7 7 7 6 4 4 5 4 8 7 5 6 4 6 8 11 9 11 10 10 8 7 10 10 9 8 7 6 5 5 5 5 4
3 3 3 2 2 1 1 1 3 3 3 3 3 3 2 1 2 3 4 5 6 7 8 6 4 5 4 5 5 5 5 7 5 5 7 7 8 6 8 9 9 8 8 9 9 7 7 6 6 5 5 4 4 4
3 3 3 3 2 2 1 1 3 3 3 2 2 2 1 2 3 4 4 5 5 6 8 7 5 5 6 5 5 5 5 6 7 8 7 7 5 7 7 7 9 7 8 9 10 7 7 7 5 4 5 4 4 4
3 3 3 3 2 1 1 2 2 2 2 2 2 2 2 2 3 4 6 4 3 4 7 9 6 7 7 6 6 6 5 6 7 8 7 5 5 6 8 9 6 5 5 5 7 5 5 5 4 4 4 4 4 4
2 2 3 3 2 1 1 2 2 2 2 2 2 2 3 3 4 5 5 5 4 4 8 10 9 7 6 6 7 7 6 6 6 7 7 5 5 6 7 9 5 4 5 5 4 5 6 5 5 4 4 4 4 3
1 2 2 2 2 1 2 1 2 2 2 2 2 3 3 3 4 4 3 4 4 6 7 10 10 7 5 5 7 6 7 7 7 6 6 6 6 6 9 6 5 5 4 5 5 4 4 4 4 4 3 3 4 4
1 1 2 2 1 1 1 2 2 1 2 2 3 3 4 5 6 5 2 3 5 6 9 9 10 9 5 6 4 5 6 7 5 6 6 6 7 9 6 6 5 5 6 5 4 4 4 5 5 4 4 4 4 4
1 1 1 1 1 1 2 2 1 2 3 2 3 4 7 5 3 4 7 7 7 7 8 10 8 9 7 7 6 6 6 7 8 6 6 7 8 5 4 4 4 4 4 4 6 6 5 5 5 5 4 4 4 4
1 1 1 1 2 2 2 1 2 2 3 4 5 5 4 2 6 8 9 10 9 11 9 9 9 9 6 8 8 5 7 7 10 9 9 8 9 7 5 5 4 4 4 4 3 3 4 4 4 4 4 3 3 3
1 1 0 1 1 1 2 2 3 2 3 4 5 5 5 7 8 9 10 9 10 10 8 8 7 8 6 5 7 6 9 8 12 7 10 11 9 6 6 5 4 4 3 3 3 3 3 3 3 3 3 3 3 3
0 -0 1 1 0 0 1 1 1 2 3 3 4 7 8 9 12 12 12 11 10 8 6 7 7 6 7 7 7 8 10 10 7 10 11 10 7 6 5 5 4 4 3 3 3 3 3 3 3 3 3 3 3 3
1 1 1 0 1 0 1 1 2 2 3 6 7 12 9 11 10 9 9 8 6 6 6 5 6 6 6 7 7 10 8 8 11 12 12 9 7 6 5 4 4 4 4 4 4 3 3 3 3 3 3 2 2 3
2 1 1 1 0 1 1 2 2 3 5 6 6 11 9 7 7 6 7 7 6 5 6 6 6 6 6 8 8 9 10 12 11 11 9 7 6 5 5 5 5 5 4 4 3 3 3 3 3 3 2 2 2 2
2 3 3 2 1 1 1 1 3 3 4 6 6 8 7 7 7 7 7 7 5 5 6 6 7 8 9 9 10 11 11 13 10 8 6 6 5 5 5 4 4 4 3 3 3 3 3 3 3 3 2 2 2 2
4 6 2 1 2 3 2 3 4 6 6 7 7 5 6 6 7 6 5 6 4 5 7 6 9 9 7 9 11 9 10 8 7 6 5 5 5 5 4 4 4 3 3 3 3 3 3 2 2 3 3 2 2 2
6 3 1 2 3 3 4 4 5 6 8 6 8 7 6 6 6 5 4 4 4 5 5 7 6 8 9 10 9 7 6 5 5 5 5 4 4 4 4 4 3 3 3 3 3 3 2 3 3 3 3 2 2 2
3 2 1 2 2 4 6 6 5 8 8 7 7 6 6 6 5 5 5 4 3 3 4 6 8 8 8 7 6 6 5 5 6 5 4 3 3 3 4 3 3 3 3 3 3 3 3 2 3 2 2 2 3 2
2 2 2 2 2 5 7 7 5 7 8 7 6 6 6 6 6 5 4 3 4 4 6 7 7 6 6 5 4 5 4 4 4 6 5 4 3 3 3 3 3 3 3 3 3 5 2 2 2 2 2 2 3 3
3 3 2 1 3 4 6 7 7 7 7 7 6 6 6 5 5 5 5 4 5 6 6 5 5 4 3 3 3 3 3 3 4 4 5 6 4 4 4 3 3 3 3 3 4 3 3 2 2 2 2 2 2 2
2 2 3 3 6 6 6 5 6 6 7 6 6 5 6 7 6 6 4 6 6 5 5 5 4 4 4 4 3 3 3 3 3 3 5 5 4 4 4 3 3 3 3 3 2 2 2 1 1 2 2 2 2 2
3 3 5 6 8 9 9 5 7 6 8 7 6 7 7 7 6 4 7 6 5 4 3 3 3 3 3 3 3 3 2 3 4 4 3 3 3 3 3 2 2 3 3 2 2 2 2 4 3 2 2 2 2 2
3 6 8 8 8 9 6 7 5 6 7 7 8 9 8 7 5 7 8 7 5 3 4 4 3 4 3 3 4 3 3 2 3 3 3 3 4 3 2 2 2 2 2 2 2 2 2 2 4 2 2 2 2 2
9 9 8 10 6 8 8 8 8 8 9 8 9 9 8 6 8 9 9 7 5 5 4 4 4 4 4 4 3 3 2 2 4 4 3 2 2 2 2 2 2 1 1 2 2 2 2 2 2 2 2 2 2 2
12 8 9 8 7 8 8 10 9 9 8 9 8 7 7 8 10 11 9 7 6 5 4 4 4 4 4 3 4 4 3 2 2 3 2 2 2 3 3 3 4 3 1 1 2 2 2 2 2 2 2 2 5 2
11 10 7 6 6 6 7 6 6 7 9 9 8 8 9 12 12 8 5 4 5 4 3 3 3 4 4 3 3 2 1 1 2 2 1 1 1 1 2 3 3 2 1 1 1 1 2 2 2 2 3 2 2 2
9 8 9 7 7 6 8 8 8 9 8 7 7 10 11 12 10 6 5 3 2 2 2 2 1 2 2 2 2 1 1 1 1 1 1 1 0 1 1 1 1 7 2 0 1 1 1 2 2 2 2 2 2 1
9 8 7 8 8 8 8 8 8 7 7 8 9 9 8 6 4 4 3 2 2 2 3 3 3 2 2 1 1 1 1 2 3 4 4 4 4 3 2 2 3 3 3 2 8 5 1 1 2 1 2 2 2 4
10 8 9 10 11 11 9 7 8 6 5 6 6 6 6 5 4 2 3 3 3 3 3 2 2 2 3 3 3 4 3 3 2 3 4 4 4 3 4 4 3 3 2 2 3 2 6 4 4 3 4 4 4 4
8 8 9 9 10 8 7 6 6 5 4 5 5 6 6 5 4 4 5 4 2 3 3 3 3 3 3 3 3 4 4 3 3 4 4 4 4 3 3 3 3 3 3 4 4 4 4 4 5 5 5 5 5 6
7 8 8 9 8 5 4 6 6 6 6 6 6 5 5 5 6 4 4 3 4 4 5 4 4 5 4 3 3 4 7 3 3 3 3 3 3 3 3 3 3 3 4 4 4 5 5 5 5 5 6 6 6 6
6 6 6 7 8 7 6 6 7 7 6 7 6 6 5 5 7 4 2 4 4 4 5 4 4 3 3 3 3 3 5 4 8 10 10 10 11 8 4 4 4 5 5 5 5 6 6 6 6 6 6 7 7 7